Location: Beutels
(47.8767°N, 9.8584°E)
Time: 17:44:28
(UTC+00:00)

Cosmos 2074 Rocket - Pass Details

Date: 19 May 2025
Orbit: 965 x 986 km, 82.9° (Epoch: 16 June)

Event Time Altitude Azimuth Distance (km) Brightness Sun altitude
Rises 19:40:00 0° 350° (N) 3,679 7.9 -6.6°
Reaches altitude 10° 19:42:31 10° 350° (N) 2,725 7.2 -6.9°
Maximum altitude 19:48:46 84° 263° (W) 979 4.1 -7.7°
Drops below altitude 10° 19:54:57 10° 176° (S) 2,698 5.9 -8.5°
Enters shadow 19:57:26 - 176° (S) 3,638 6.5 -8.8°
